Sallisaw, OK

12:15 PM CST on February 07, 2016 (GMT -0600)
Sallisaw Municipal

Weather History for KJSV - October, 2013

Change the Weather History Date:

Saturday, October 19, 2013

  Actual Average (KFSM) Record (KFSM)
Temperature  
Mean Temperature 50 °F 62 °F  
Max Temperature 60 °F 74 °F 90 °F (1899)
Min Temperature 41 °F 50 °F 29 °F (1989)
Degree Days  
Heating Degree Days 14 5  
Month to date heating degree days 60  
Since 1 July heating degree days 77  
Cooling Degree Days 0 2  
Month to date cooling degree days 54  
Year to date cooling degree days 2032  
Moisture  
Dew Point 39 °F    
Average Humidity 75    
Maximum Humidity 100    
Minimum Humidity 39    
Precipitation  
Precipitation 0.01 in 0.15 in 2.35 in (1993)
Month to date precipitation 2.59  
Year to date precipitation 36.00  
Sea Level Pressure  
Sea Level Pressure 30.12 in    
Wind  
Wind Speed 7 mph (WNW)    
Max Wind Speed 14 mph    
Max Gust Speed 20 mph    
Visibility 10 miles    
Events      
T = Trace of Precipitation, MM = Missing Value Source: NWS Daily Summary

Daily Weather History Graph

Daily Weather History Graph

Search for Another Location

Airport or City:

Trip Planner

Search our weather history database for the weather conditions in past years. The results will help you decide how hot, cold, wet, or windy it might be!

Date:

Astronomy

Oct. 19, 2013 Rise Set
Actual Time 7:29 AM CDT 6:38 PM CDT
Civil Twilight 7:03 AM CDT 7:04 PM CDT
Nautical Twilight 6:33 AM CDT 7:33 PM CDT
Astronomical Twilight 6:04 AM CDT 8:03 PM CDT
Moon 7:09 PM CDT (10/19) 8:05 AM CDT (10/19)
Length of Visible Light 12h 00m
Length of Day
11h 09m
Waxing Gibbous, 99% of the Moon is Illuminated
Oct 19
Waxing Gibbous
Oct 26
Last Quarter
Nov 3
New
Nov 9
First Quarter
Nov 17
Full

Hourly Weather History & Observations

Time (CDT) Temp. Windchill Dew Point Humidity Pressure Visibility Wind Dir Wind Speed Gust Speed Precip Events Conditions
12:15 AM 48.2 °F - 46.4 °F 93% 30.10 in 5.0 mi NW 13.8 mph 18.4 mph 0.01 in   Overcast
12:35 AM 46.4 °F 40.4 °F 44.6 °F 93% 30.10 in 3.0 mi NW 13.8 mph - 0.01 in   Overcast
12:55 AM 46.4 °F 41.9 °F 44.6 °F 93% 30.10 in 7.0 mi NW 9.2 mph - 0.01 in   Overcast
1:15 AM 46.4 °F 41.1 °F 44.6 °F 93% 30.11 in 10.0 mi NW 11.5 mph 19.6 mph N/A   Overcast
1:35 AM 44.6 °F 38.4 °F 42.8 °F 93% 30.11 in 10.0 mi NNW 12.7 mph 18.4 mph N/A   Overcast
1:55 AM 44.6 °F 39.2 °F 42.8 °F 93% 30.11 in 10.0 mi NW 10.4 mph 18.4 mph N/A   Overcast
2:15 AM 44.6 °F 40.2 °F 41.0 °F 87% 30.12 in 10.0 mi NNW 8.1 mph - N/A   Overcast
2:35 AM 44.6 °F 40.2 °F 41.0 °F 87% 30.12 in 10.0 mi NW 8.1 mph - N/A   Overcast
2:55 AM 44.6 °F 39.2 °F 41.0 °F 87% 30.12 in 10.0 mi NW 10.4 mph - N/A   Overcast
3:15 AM 44.6 °F 39.2 °F 41.0 °F 87% 30.12 in 10.0 mi NW 10.4 mph - N/A   Overcast
3:35 AM 44.6 °F 40.2 °F 41.0 °F 87% 30.13 in 10.0 mi NW 8.1 mph - N/A   Overcast
3:55 AM 42.8 °F 37.5 °F 39.2 °F 87% 30.13 in 10.0 mi NNW 9.2 mph - N/A   Mostly Cloudy
4:15 AM 42.8 °F 39.3 °F 41.0 °F 93% 30.13 in 10.0 mi NW 5.8 mph - N/A   Mostly Cloudy
4:35 AM 42.8 °F 36.6 °F 39.2 °F 87% 30.13 in 10.0 mi NW 11.5 mph 16.1 mph N/A   Overcast
4:55 AM 42.8 °F 38.0 °F 39.2 °F 87% 30.12 in 10.0 mi NW 8.1 mph - N/A   Overcast
5:15 AM 42.8 °F 37.0 °F 37.4 °F 81% 30.12 in 10.0 mi NW 10.4 mph - N/A   Overcast
5:35 AM 42.8 °F 37.5 °F 37.4 °F 81% 30.13 in 10.0 mi NW 9.2 mph - N/A   Overcast
5:55 AM 42.8 °F 36.6 °F 37.4 °F 81% 30.14 in 10.0 mi NW 11.5 mph - N/A   Overcast
6:15 AM 41.0 °F 35.2 °F 35.6 °F 81% 30.14 in 10.0 mi NNW 9.2 mph - N/A   Overcast
6:35 AM 41.0 °F 35.8 °F 35.6 °F 81% 30.15 in 10.0 mi NW 8.1 mph - N/A   Overcast
6:55 AM 41.0 °F 37.1 °F 35.6 °F 81% 30.15 in 10.0 mi WNW 5.8 mph - N/A   Overcast
7:15 AM 41.0 °F 37.1 °F 35.6 °F 81% 30.16 in 10.0 mi West 5.8 mph - N/A   Overcast
7:35 AM 41.0 °F 37.1 °F 35.6 °F 81% 30.16 in 10.0 mi WNW 5.8 mph - N/A   Mostly Cloudy
7:55 AM 41.0 °F 37.1 °F 35.6 °F 81% 30.16 in 10.0 mi WNW 5.8 mph - N/A   Overcast
8:15 AM 41.0 °F 37.1 °F 35.6 °F 81% 30.16 in 10.0 mi NW 5.8 mph - N/A   Overcast
8:35 AM 41.0 °F 38.0 °F 35.6 °F 81% 30.17 in 10.0 mi WNW 4.6 mph - N/A   Overcast
8:55 AM 41.0 °F 37.1 °F 35.6 °F 81% 30.18 in 10.0 mi WNW 5.8 mph - N/A   Overcast
9:15 AM 42.8 °F 39.3 °F 35.6 °F 76% 30.19 in 10.0 mi WNW 5.8 mph - N/A   Overcast
9:35 AM 42.8 °F 40.1 °F 35.6 °F 76% 30.19 in 10.0 mi West 4.6 mph - N/A   Overcast
9:55 AM 42.8 °F 39.3 °F 37.4 °F 81% 30.20 in 10.0 mi NNW 5.8 mph - N/A   Mostly Cloudy
10:15 AM 42.8 °F 40.1 °F 35.6 °F 76% 30.20 in 10.0 mi West 4.6 mph - N/A   Mostly Cloudy
10:35 AM 44.6 °F 40.7 °F 37.4 °F 76% 30.20 in 10.0 mi West 6.9 mph - N/A   Mostly Cloudy
10:55 AM 46.4 °F 44.3 °F 37.4 °F 71% 30.20 in 10.0 mi NW 4.6 mph - N/A   Scattered Clouds
11:15 AM 46.4 °F - 37.4 °F 71% 30.19 in 10.0 mi Calm Calm - N/A   Scattered Clouds
11:35 AM 48.2 °F - 37.4 °F 66% 30.18 in 10.0 mi WNW 4.6 mph - N/A   Clear
11:55 AM 50.0 °F - 37.4 °F 62% 30.18 in 10.0 mi WNW 3.5 mph - N/A   Clear
1:15 PM 53.6 °F - 37.4 °F 54% 30.16 in 10.0 mi WNW 3.5 mph - N/A   Clear
1:55 PM 55.4 °F - 37.4 °F 51% 30.14 in 10.0 mi Calm Calm - N/A   Clear
2:15 PM 55.4 °F - 37.4 °F 51% 30.13 in 10.0 mi WNW 6.9 mph - N/A   Clear
2:35 PM 57.2 °F - 37.4 °F 48% 30.12 in 10.0 mi SSW 4.6 mph - N/A   Clear
2:55 PM 57.2 °F - 37.4 °F 48% 30.11 in 10.0 mi Calm Calm - N/A   Clear
3:15 PM 59.0 °F - 37.4 °F 45% 30.11 in 10.0 mi Calm Calm - N/A   Clear
3:35 PM 59.0 °F - 37.4 °F 45% 30.11 in 10.0 mi SW 4.6 mph - N/A   Clear
3:55 PM 59.0 °F - 35.6 °F 42% 30.10 in 10.0 mi Calm Calm - N/A   Clear
4:15 PM 59.0 °F - 35.6 °F 42% 30.10 in 10.0 mi SSW 4.6 mph - N/A   Clear
4:35 PM 60.8 °F - 35.6 °F 39% 30.09 in 10.0 mi Calm Calm - N/A   Clear
4:55 PM 60.8 °F - 35.6 °F 39% 30.09 in 10.0 mi WSW 4.6 mph - N/A   Clear
5:15 PM 60.8 °F - 35.6 °F 39% 30.08 in 10.0 mi SSW 3.5 mph - N/A   Clear
5:35 PM 59.0 °F - 35.6 °F 42% 30.07 in 10.0 mi SW 5.8 mph - N/A   Clear
5:55 PM 59.0 °F - 35.6 °F 42% 30.07 in 10.0 mi SW 4.6 mph - N/A   Clear
6:15 PM 57.2 °F - 37.4 °F 48% 30.07 in 10.0 mi SW 3.5 mph - N/A   Clear
6:35 PM 55.4 °F - 37.4 °F 51% 30.07 in 10.0 mi Calm Calm - N/A   Clear
6:55 PM 53.6 °F - 41.0 °F 62% 30.06 in 10.0 mi South 3.5 mph - N/A   Clear
7:15 PM 51.8 °F - 41.0 °F 67% 30.07 in 10.0 mi Calm Calm - N/A   Clear
7:35 PM 50.0 °F - 41.0 °F 71% 30.07 in 10.0 mi Calm Calm - N/A   Clear
7:55 PM 46.4 °F - 42.8 °F 87% 30.06 in 10.0 mi Calm Calm - N/A   Clear
8:15 PM 46.4 °F - 42.8 °F 87% 30.07 in 10.0 mi Calm Calm - N/A   Clear
8:35 PM 46.4 °F - 42.8 °F 87% 30.07 in 10.0 mi Calm Calm - N/A   Clear
8:55 PM 44.6 °F - 41.0 °F 87% 30.07 in 10.0 mi Calm Calm - N/A   Clear
9:15 PM 44.6 °F - 42.8 °F 93% 30.07 in 10.0 mi Calm Calm - N/A   Clear
9:35 PM 44.6 °F - 42.8 °F 93% 30.07 in 10.0 mi Calm Calm - N/A   Clear
9:55 PM 44.6 °F - 42.8 °F 93% 30.07 in 10.0 mi Calm Calm - N/A   Clear
10:15 PM 42.8 °F - 42.8 °F 100% 30.07 in 10.0 mi Calm Calm - N/A   Clear
10:35 PM 42.8 °F - 42.8 °F 100% 30.07 in 10.0 mi Calm Calm - N/A   Clear
10:55 PM 42.8 °F 41.1 °F 41.0 °F 93% 30.07 in 10.0 mi NE 3.5 mph - N/A   Clear
11:15 PM 42.8 °F - 41.0 °F 93% 30.06 in 10.0 mi Calm Calm - N/A   Clear
11:35 PM 42.8 °F 40.1 °F 41.0 °F 93% 30.06 in 10.0 mi NE 4.6 mph - N/A   Clear
11:55 PM 42.8 °F 41.1 °F 39.2 °F 87% 30.06 in 10.0 mi ENE 3.5 mph - N/A   Clear